| time (UTC) | temp C | wind direction | speed KPH | gust KPH | rain 1hr cm | rain 24hr cm | rain mn cm | humidity % | barometer mb |
| 20260906233518 | 18 | 275 | 12.9 | 20.9 | 0.00 | 0.00 | 0.00 | 69 | 1013.4 |
| 20260906233035 | 18 | 297 | 14.5 | 20.9 | 0.00 | 0.00 | 0.00 | 68 | 1013.3 |
| 20260906232519 | 18 | 265 | 12.9 | 22.5 | 0.00 | 0.00 | 0.00 | 68 | 1013.4 |
| 20260906232018 | 18 | 285 | 14.5 | 22.5 | 0.00 | 0.00 | 0.00 | 68 | 1013.4 |
| 20260906231536 | 18 | 275 | 11.3 | 20.9 | 0.00 | 0.00 | 0.00 | 69 | 1013.5 |
| 20260906231024 | 18 | 257 | 11.3 | 22.5 | 0.00 | 0.00 | 0.00 | 69 | 1013.6 |
| 20260906230517 | 18 | 279 | 9.7 | 22.5 | 0.00 | 0.00 | 0.00 | 68 | 1013.7 |
| 20260906230039 | 18 | 279 | 8.0 | 22.5 | 0.00 | 0.00 | 0.00 | 68 | 1013.7 |
| 20260906225519 | 18 | 254 | 11.3 | 19.3 | 0.00 | 0.00 | 0.00 | 67 | 1013.7 |
| 20260906225018 | 18 | 258 | 9.7 | 17.7 | 0.00 | 0.00 | 0.00 | 68 | 1013.8 |
| 20260906224543 | 18 | 291 | 12.9 | 17.7 | 0.00 | 0.00 | 0.00 | 68 | 1013.8 |
| 20260906224019 | 18 | 261 | 9.7 | 17.7 | 0.00 | 0.00 | 0.00 | 68 | 1013.9 |
| 20260906223519 | 18 | 256 | 9.7 | 17.7 | 0.00 | 0.00 | 0.00 | 68 | 1014.0 |
| 20260906223046 | 18 | 258 | 8.0 | 16.1 | 0.00 | 0.00 | 0.00 | 68 | 1014.0 |
| 20260906222520 | 18 | 245 | 8.0 | 16.1 | 0.00 | 0.00 | 0.00 | 69 | 1014.2 |
| 20260906222020 | 18 | 250 | 8.0 | 17.7 | 0.00 | 0.00 | 0.00 | 69 | 1014.1 |
| 20260906221536 | 18 | 270 | 9.7 | 17.7 | 0.00 | 0.00 | 0.00 | 69 | 1014.1 |
| 20260906221019 | 18 | 275 | 12.9 | 17.7 | 0.00 | 0.00 | 0.00 | 69 | 1014.2 |
| 20260906220519 | 18 | 270 | 8.0 | 12.9 | 0.00 | 0.00 | 0.00 | 69 | 1014.1 |
| 20260906220047 | 18 | 222 | 6.4 | 14.5 | 0.00 | 0.00 | 0.00 | 69 | 1014.1 |
| 20260906215516 | 18 | 247 | 6.4 | 16.1 | 0.00 | 0.00 | 0.00 | 70 | 1014.1 |
| 20260906215018 | 18 | 237 | 6.4 | 16.1 | 0.00 | 0.00 | 0.00 | 70 | 1014.1 |
| 20260906214537 | 18 | 282 | 4.8 | 12.9 | 0.00 | 0.00 | 0.00 | 70 | 1014.0 |
| 20260906214018 | 18 | 321 | 6.4 | 16.1 | 0.00 | 0.00 | 0.00 | 71 | 1014.0 |
| 20260906213525 | 18 | 292 | 6.4 | 19.3 | 0.00 | 0.00 | 0.00 | 71 | 1014.1 |
| 20260906213041 | 18 | 261 | 4.8 | 14.5 | 0.00 | 0.00 | 0.00 | 71 | 1014.0 |
| 20260906212521 | 18 | 283 | 6.4 | 12.9 | 0.00 | 0.00 | 0.00 | 72 | 1014.0 |
| 20260906212020 | 17 | 270 | 4.8 | 12.9 | 0.00 | 0.00 | 0.00 | 73 | 1014.0 |
| 20260906211541 | 17 | 265 | 6.4 | 16.1 | 0.00 | 0.00 | 0.00 | 74 | 1014.1 |
| 20260906211019 | 17 | 295 | 8.0 | 16.1 | 0.00 | 0.00 | 0.00 | 74 | 1014.2 |
| 20260906210521 | 17 | 316 | 4.8 | 14.5 | 0.00 | 0.00 | 0.00 | 74 | 1014.2 |
| 20260906210042 | 17 | 322 | 9.7 | 16.1 | 0.00 | 0.00 | 0.00 | 75 | 1014.4 |
| 20260906205518 | 17 | 270 | 9.7 | 16.1 | 0.00 | 0.00 | 0.00 | 75 | 1014.4 |
| 20260906205015 | 17 | 258 | 6.4 | 14.5 | 0.00 | 0.00 | 0.00 | 76 | 1014.4 |
| 20260906204542 | 17 | 281 | 4.8 | 14.5 | 0.00 | 0.00 | 0.00 | 77 | 1014.5 |
| 20260906204017 | 16 | 298 | 6.4 | 14.5 | 0.00 | 0.00 | 0.00 | 78 | 1014.5 |
| 20260906203518 | 16 | 325 | 6.4 | 16.1 | 0.00 | 0.00 | 0.00 | 79 | 1014.4 |
| 20260906203040 | 16 | 349 | 8.0 | 14.5 | 0.00 | 0.00 | 0.00 | 79 | 1014.4 |
| 20260906202518 | 16 | 308 | 4.8 | 14.5 | 0.00 | 0.00 | 0.00 | 79 | 1014.4 |
| 20260906202019 | 16 | 270 | 6.4 | 14.5 | 0.00 | 0.00 | 0.00 | 79 | 1014.4 |
| 20260906201553 | 16 | 319 | 4.8 | 14.5 | 0.00 | 0.00 | 0.00 | 80 | 1014.5 |
| 20260906201018 | 16 | 302 | 8.0 | 12.9 | 0.00 | 0.00 | 0.00 | 80 | 1014.6 |
| 20260906200521 | 16 | 329 | 6.4 | 11.3 | 0.00 | 0.00 | 0.00 | 80 | 1014.7 |
| 20260906200043 | 16 | 348 | 4.8 | 9.7 | 0.00 | 0.00 | 0.00 | 80 | 1014.7 |
| 20260906195518 | 16 | 308 | 4.8 | 17.7 | 0.00 | 0.00 | 0.00 | 80 | 1014.7 |
| 20260906195020 | 16 | 308 | 4.8 | 17.7 | 0.00 | 0.00 | 0.00 | 80 | 1014.9 |
| 20260906194542 | 15 | 340 | 6.4 | 14.5 | 0.00 | 0.00 | 0.00 | 80 | 1014.9 |
| 20260906194019 | 15 | 333 | 6.4 | 14.5 | 0.00 | 0.00 | 0.00 | 81 | 1014.9 |
| 20260906193518 | 15 | 314 | 8.0 | 19.3 | 0.00 | 0.00 | 0.00 | 81 | 1014.9 |
| 20260906193045 | 15 | 309 | 9.7 | 19.3 | 0.00 | 0.00 | 0.00 | 81 | 1014.9 |
| 20260906192517 | 15 | 314 | 8.0 | 22.5 | 0.00 | 0.00 | 0.00 | 81 | 1014.9 |
| 20260906192017 | 15 | 323 | 8.0 | 22.5 | 0.00 | 0.00 | 0.00 | 81 | 1015.0 |
| 20260906191543 | 15 | 306 | 9.7 | 19.3 | 0.00 | 0.00 | 0.00 | 81 | 1015.0 |
| 20260906191019 | 15 | 308 | 8.0 | 17.7 | 0.00 | 0.00 | 0.00 | 81 | 1015.0 |
| 20260906190518 | 15 | 334 | 9.7 | 19.3 | 0.00 | 0.00 | 0.00 | 81 | 1015.0 |
| 20260906190058 | 15 | 337 | 9.7 | 19.3 | 0.00 | 0.00 | 0.00 | 82 | 1015.0 |
| 20260906185517 | 15 | 300 | 11.3 | 20.9 | 0.00 | 0.00 | 0.00 | 83 | 1015.1 |
| 20260906185023 | 15 | 329 | 12.9 | 24.1 | 0.00 | 0.00 | 0.00 | 83 | 1015.2 |
| 20260906184545 | 15 | 339 | 14.5 | 20.9 | 0.00 | 0.00 | 0.00 | 85 | 1015.0 |
| 20260906184017 | 15 | 347 | 12.9 | 20.9 | 0.00 | 0.00 | 0.00 | 87 | 1015.0 |
| 20260906183519 | 15 | 331 | 11.3 | 19.3 | 0.00 | 0.00 | 0.00 | 88 | 1015.2 |
| 20260906183054 | 15 | 292 | 11.3 | 17.7 | 0.00 | 0.00 | 0.00 | 87 | 1015.6 |
| 20260906182517 | 15 | 307 | 9.7 | 17.7 | 0.00 | 0.00 | 0.00 | 86 | 1015.6 |
| 20260906182017 | 15 | 304 | 11.3 | 19.3 | 0.00 | 0.00 | 0.00 | 85 | 1015.6 |
| 20260906181544 | 15 | 327 | 9.7 | 19.3 | 0.00 | 0.00 | 0.00 | 84 | 1015.6 |
| 20260906181021 | 15 | 261 | 9.7 | 20.9 | 0.00 | 0.00 | 0.00 | 83 | 1015.6 |
| 20260906180518 | 15 | 335 | 11.3 | 20.9 | 0.00 | 0.00 | 0.00 | 82 | 1015.5 |
| 20260906180046 | 15 | 352 | 12.9 | 19.3 | 0.00 | 0.00 | 0.00 | 82 | 1015.4 |
| 20260906175522 | 15 | 323 | 11.3 | 17.7 | 0.00 | 0.00 | 0.00 | 84 | 1015.4 |
| 20260906175019 | 14 | 347 | 11.3 | 17.7 | 0.00 | 0.00 | 0.00 | 84 | 1015.6 |
| 20260906174544 | 14 | 287 | 8.0 | 16.1 | 0.00 | 0.00 | 0.00 | 84 | 1015.8 |
| 20260906174020 | 14 | 257 | 11.3 | 20.9 | 0.00 | 0.00 | 0.00 | 84 | 1016.0 |
| 20260906173517 | 13 | 247 | 8.0 | 20.9 | 0.00 | 0.00 | 0.00 | 84 | 1016.1 |
| 20260906173048 | 13 | 235 | 9.7 | 17.7 | 0.00 | 0.00 | 0.00 | 84 | 1016.1 |
| 20260906172518 | 13 | 246 | 12.9 | 17.7 | 0.00 | 0.00 | 0.00 | 84 | 1016.2 |
| 20260906172016 | 13 | 254 | 11.3 | 20.9 | 0.00 | 0.00 | 0.00 | 84 | 1016.1 |
| 20260906171544 | 13 | 245 | 11.3 | 20.9 | 0.00 | 0.00 | 0.00 | 84 | 1016.0 |
| 20260906171018 | 13 | 258 | 14.5 | 20.9 | 0.00 | 0.00 | 0.00 | 85 | 1016.0 |
| 20260906170520 | 13 | 262 | 11.3 | 20.9 | 0.00 | 0.00 | 0.00 | 84 | 1016.1 |
| 20260906170046 | 13 | 265 | 11.3 | 20.9 | 0.00 | 0.00 | 0.00 | 84 | 1016.3 |
| 20260906165520 | 13 | 252 | 11.3 | 20.9 | 0.00 | 0.00 | 0.00 | 85 | 1016.2 |
| 20260906165018 | 13 | 233 | 11.3 | 20.9 | 0.00 | 0.00 | 0.00 | 85 | 1016.4 |
| 20260906164545 | 12 | 237 | 11.3 | 20.9 | 0.00 | 0.00 | 0.00 | 85 | 1016.5 |
| 20260906164020 | 12 | 232 | 9.7 | 17.7 | 0.00 | 0.00 | 0.00 | 86 | 1016.6 |
| 20260906163520 | 12 | 239 | 9.7 | 19.3 | 0.00 | 0.00 | 0.00 | 86 | 1016.7 |
| 20260906163044 | 12 | 230 | 11.3 | 17.7 | 0.00 | 0.00 | 0.00 | 86 | 1016.7 |
| 20260906162519 | 12 | 265 | 8.0 | 19.3 | 0.00 | 0.00 | 0.00 | 86 | 1016.8 |
| 20260906162016 | 12 | 230 | 11.3 | 19.3 | 0.00 | 0.00 | 0.00 | 86 | 1016.8 |
| 20260906161546 | 12 | 279 | 11.3 | 24.1 | 0.00 | 0.00 | 0.00 | 85 | 1016.7 |
| 20260906161020 | 12 | 235 | 11.3 | 24.1 | 0.00 | 0.00 | 0.00 | 85 | 1016.8 |
| 20260906160520 | 12 | 249 | 12.9 | 20.9 | 0.00 | 0.00 | 0.00 | 85 | 1016.8 |
| 20260906160047 | 12 | 265 | 11.3 | 22.5 | 0.00 | 0.00 | 0.00 | 86 | 1017.1 |
| 20260906155521 | 12 | 238 | 14.5 | 20.9 | 0.00 | 0.00 | 0.00 | 85 | 1017.0 |
| 20260906155020 | 12 | 231 | 14.5 | 30.6 | 0.00 | 0.00 | 0.00 | 85 | 1017.2 |
| 20260906154544 | 12 | 249 | 14.5 | 30.6 | 0.00 | 0.00 | 0.00 | 86 | 1017.1 |
| 20260906154019 | 12 | 262 | 11.3 | 27.4 | 0.00 | 0.00 | 0.00 | 86 | 1017.0 |
| 20260906153519 | 12 | 224 | 17.7 | 27.4 | 0.00 | 0.00 | 0.00 | 86 | 1016.8 |
| 20260906153047 | 12 | 270 | 12.9 | 27.4 | 0.00 | 0.00 | 0.00 | 86 | 1016.8 |
| 20260906152515 | 12 | 270 | 14.5 | 27.4 | 0.00 | 0.00 | 0.00 | 86 | 1016.8 |
| 20260906152019 | 12 | 219 | 16.1 | 24.1 | 0.00 | 0.00 | 0.00 | 86 | 1016.9 |
| 20260906151541 | 13 | 240 | 17.7 | 27.4 | 0.00 | 0.00 | 0.00 | 87 | 1016.8 |
| 20260906151023 | 13 | 216 | 20.9 | 27.4 | 0.00 | 0.00 | 0.00 | 87 | 1016.9 |
| 20260906150520 | 13 | 236 | 17.7 | 25.7 | 0.00 | 0.00 | 0.00 | 88 | 1016.9 |
| 20260906150044 | 13 | 219 | 20.9 | 25.7 | 0.00 | 0.00 | 0.00 | 87 | 1017.2 |
| 20260906145521 | 13 | 227 | 16.1 | 24.1 | 0.00 | 0.00 | 0.00 | 87 | 1017.2 |
| 20260906145025 | 13 | 196 | 14.5 | 24.1 | 0.00 | 0.00 | 0.00 | 86 | 1017.3 |
| 20260906144544 | 14 | 201 | 12.9 | 16.1 | 0.00 | 0.00 | 0.00 | 86 | 1017.4 |
| 20260906144016 | 14 | 210 | 9.7 | 12.9 | 0.00 | 0.00 | 0.00 | 85 | 1017.4 |
| 20260906143520 | 15 | 192 | 4.8 | 9.7 | 0.00 | 0.00 | 0.00 | 85 | 1017.4 |
| 20260906143048 | 15 | 4 | 1.6 | 4.8 | 0.00 | 0.00 | 0.00 | 85 | 1017.4 |
| 20260906142523 | 15 | 4 | 0.0 | 11.3 | 0.00 | 0.00 | 0.00 | 85 | 1017.2 |
| 20260906142022 | 15 | 4 | 6.4 | 12.9 | 0.00 | 0.00 | 0.00 | 85 | 1017.1 |
| 20260906141543 | 15 | 353 | 6.4 | 14.5 | 0.00 | 0.00 | 0.00 | 85 | 1017.0 |
| 20260906141018 | 15 | 2 | 8.0 | 16.1 | 0.00 | 0.00 | 0.00 | 84 | 1016.7 |
| 20260906140523 | 15 | 2 | 11.3 | 16.1 | 0.00 | 0.00 | 0.00 | 84 | 1016.7 |
| 20260906140048 | 15 | 25 | 4.8 | 14.5 | 0.00 | 0.00 | 0.00 | 85 | 1016.7 |
| 20260906135516 | 14 | 353 | 4.8 | 14.5 | 0.00 | 0.00 | 0.00 | 85 | 1016.7 |
| 20260906135018 | 14 | 349 | 6.4 | 12.9 | 0.00 | 0.00 | 0.00 | 85 | 1016.6 |
| 20260906134545 | 14 | 2 | 4.8 | 9.7 | 0.00 | 0.00 | 0.00 | 85 | 1016.7 |
| 20260906134024 | 14 | 308 | 4.8 | 14.5 | 0.00 | 0.00 | 0.00 | 85 | 1016.9 |
| 20260906133521 | 14 | 333 | 6.4 | 14.5 | 0.00 | 0.00 | 0.00 | 85 | 1017.1 |
| 20260906133100 | 14 | 317 | 4.8 | 16.1 | 0.00 | 0.00 | 0.00 | 85 | 1017.1 |
| 20260906132519 | 14 | 324 | 8.0 | 17.7 | 0.00 | 0.00 | 0.00 | 85 | 1016.9 |
| 20260906132017 | 13 | 318 | 6.4 | 17.7 | 0.00 | 0.00 | 0.00 | 85 | 1016.8 |
| 20260906131552 | 13 | 306 | 8.0 | 14.5 | 0.00 | 0.00 | 0.00 | 85 | 1016.8 |
| 20260906131019 | 13 | 312 | 6.4 | 11.3 | 0.00 | 0.00 | 0.00 | 85 | 1016.9 |
| 20260906130519 | 13 | 304 | 6.4 | 14.5 | 0.00 | 0.00 | 0.00 | 85 | 1017.0 |
| 20260906130051 | 13 | 314 | 8.0 | 14.5 | 0.00 | 0.00 | 0.00 | 86 | 1017.0 |
| 20260906125518 | 13 | 289 | 6.4 | 14.5 | 0.00 | 0.00 | 0.00 | 86 | 1017.2 |
| 20260906125019 | 13 | 309 | 6.4 | 14.5 | 0.00 | 0.00 | 0.00 | 86 | 1016.9 |
| 20260906124552 | 13 | 306 | 4.8 | 8.0 | 0.00 | 0.00 | 0.00 | 86 | 1016.9 |
| 20260906124018 | 13 | 279 | 3.2 | 8.0 | 0.00 | 0.00 | 0.00 | 86 | 1017.0 |
| 20260906123518 | 13 | 265 | 4.8 | 8.0 | 0.00 | 0.00 | 0.00 | 86 | 1017.1 |
| 20260906123047 | 13 | 270 | 3.2 | 8.0 | 0.00 | 0.00 | 0.00 | 86 | 1017.4 |
| 20260906122520 | 13 | 270 | 3.2 | 8.0 | 0.00 | 0.00 | 0.00 | 86 | 1017.4 |
| 20260906122021 | 13 | 270 | 3.2 | 9.7 | 0.00 | 0.00 | 0.00 | 86 | 1017.3 |
| 20260906121543 | 13 | 270 | 3.2 | 14.5 | 0.00 | 0.00 | 0.00 | 86 | 1017.2 |
| 20260906121019 | 13 | 290 | 6.4 | 14.5 | 0.00 | 0.00 | 0.00 | 86 | 1016.8 |
| 20260906120521 | 13 | 310 | 6.4 | 14.5 | 0.00 | 0.00 | 0.00 | 86 | 1016.1 |
| 20260906120050 | 13 | 312 | 6.4 | 12.9 | 0.00 | 0.00 | 0.00 | 86 | 1016.3 |
| 20260906115518 | 13 | 290 | 3.2 | 9.7 | 0.00 | 0.00 | 0.00 | 86 | 1016.6 |
| 20260906115022 | 13 | 287 | 3.2 | 11.3 | 0.00 | 0.00 | 0.00 | 86 | 1016.7 |
| 20260906114546 | 13 | 281 | 4.8 | 11.3 | 0.00 | 0.00 | 0.00 | 86 | 1016.6 |
| 20260906114018 | 13 | 310 | 3.2 | 9.7 | 0.00 | 0.00 | 0.00 | 86 | 1016.7 |
| 20260906113519 | 13 | 279 | 4.8 | 12.9 | 0.00 | 0.00 | 0.00 | 86 | 1016.8 |
| 20260906113045 | 13 | 279 | 8.0 | 12.9 | 0.00 | 0.00 | 0.00 | 86 | 1016.8 |
| 20260906112517 | 13 | 301 | 4.8 | 12.9 | 0.00 | 0.00 | 0.00 | 86 | 1016.8 |
| 20260906112019 | 13 | 279 | 8.0 | 14.5 | 0.00 | 0.00 | 0.00 | 86 | 1017.0 |
| 20260906111551 | 13 | 302 | 6.4 | 14.5 | 0.00 | 0.00 | 0.00 | 86 | 1017.0 |
| 20260906111016 | 13 | 318 | 8.0 | 14.5 | 0.00 | 0.00 | 0.00 | 86 | 1017.0 |
| 20260906110516 | 13 | 262 | 8.0 | 17.7 | 0.00 | 0.00 | 0.00 | 86 | 1017.1 |
| 20260906110055 | 13 | 279 | 8.0 | 17.7 | 0.00 | 0.00 | 0.00 | 86 | 1017.2 |
| 20260906105522 | 13 | 287 | 6.4 | 17.7 | 0.00 | 0.00 | 0.00 | 86 | 1017.1 |
| 20260906105018 | 13 | 265 | 11.3 | 17.7 | 0.00 | 0.00 | 0.00 | 86 | 1017.1 |
| 20260906104546 | 13 | 262 | 11.3 | 17.7 | 0.00 | 0.00 | 0.00 | 86 | 1017.2 |
| 20260906104019 | 13 | 260 | 9.7 | 16.1 | 0.00 | 0.00 | 0.00 | 85 | 1017.3 |
| 20260906103519 | 13 | 281 | 11.3 | 17.7 | 0.00 | 0.00 | 0.00 | 85 | 1017.3 |
| 20260906103044 | 13 | 300 | 9.7 | 19.3 | 0.00 | 0.00 | 0.00 | 85 | 1017.4 |
| 20260906102520 | 13 | 292 | 11.3 | 20.9 | 0.00 | 0.00 | 0.00 | 85 | 1017.4 |
| 20260906102017 | 13 | 287 | 9.7 | 20.9 | 0.00 | 0.00 | 0.00 | 85 | 1017.4 |
| 20260906101542 | 13 | 288 | 8.0 | 19.3 | 0.00 | 0.00 | 0.00 | 84 | 1017.3 |
| 20260906101019 | 13 | 270 | 9.7 | 19.3 | 0.00 | 0.00 | 0.00 | 84 | 1017.2 |
| 20260906100523 | 13 | 270 | 9.7 | 17.7 | 0.00 | 0.00 | 0.00 | 84 | 1017.1 |
| 20260906100049 | 13 | 279 | 11.3 | 19.3 | 0.00 | 0.00 | 0.00 | 84 | 1017.2 |
| 20260906095517 | 13 | 288 | 12.9 | 20.9 | 0.00 | 0.00 | 0.00 | 83 | 1017.1 |
| 20260906095018 | 13 | 284 | 14.5 | 20.9 | 0.00 | 0.00 | 0.00 | 83 | 1016.8 |
| 20260906094600 | 13 | 262 | 12.9 | 22.5 | 0.00 | 0.00 | 0.00 | 83 | 1016.9 |
| 20260906094019 | 13 | 309 | 12.9 | 20.9 | 0.00 | 0.00 | 0.00 | 83 | 1016.9 |
| 20260906093520 | 13 | 308 | 12.9 | 22.5 | 0.00 | 0.00 | 0.00 | 83 | 1016.8 |
| 20260906093056 | 13 | 310 | 12.9 | 22.5 | 0.00 | 0.00 | 0.00 | 83 | 1016.8 |
| 20260906092517 | 13 | 302 | 14.5 | 22.5 | 0.00 | 0.00 | 0.00 | 83 | 1016.7 |
| 20260906092020 | 13 | 297 | 14.5 | 20.9 | 0.00 | 0.00 | 0.00 | 83 | 1016.7 |
| 20260906091550 | 13 | 296 | 12.9 | 20.9 | 0.00 | 0.00 | 0.00 | 82 | 1016.7 |
| 20260906091016 | 13 | 262 | 11.3 | 20.9 | 0.00 | 0.00 | 0.00 | 82 | 1016.9 |
| 20260906090516 | 13 | 284 | 12.9 | 20.9 | 0.00 | 0.00 | 0.00 | 82 | 1017.1 |
| 20260906090114 | 13 | 265 | 11.3 | 17.7 | 0.00 | 0.00 | 0.00 | 82 | 1017.2 |
| 20260906085519 | 13 | 270 | 11.3 | 16.1 | 0.00 | 0.00 | 0.00 | 83 | 1017.2 |
| 20260906085019 | 13 | 280 | 9.7 | 17.7 | 0.00 | 0.00 | 0.00 | 83 | 1017.1 |
| 20260906084552 | 13 | 270 | 11.3 | 20.9 | 0.00 | 0.00 | 0.00 | 83 | 1017.2 |
| 20260906084018 | 13 | 270 | 9.7 | 20.9 | 0.00 | 0.00 | 0.00 | 83 | 1017.1 |
| 20260906083520 | 13 | 296 | 11.3 | 16.1 | 0.00 | 0.00 | 0.00 | 84 | 1017.2 |
| 20260906083053 | 13 | 262 | 11.3 | 16.1 | 0.00 | 0.00 | 0.00 | 84 | 1017.2 |
| 20260906082517 | 13 | 262 | 9.7 | 16.1 | 0.00 | 0.00 | 0.00 | 83 | 1017.4 |
| 20260906082019 | 13 | 270 | 9.7 | 16.1 | 0.00 | 0.00 | 0.00 | 83 | 1017.4 |
| 20260906081551 | 13 | 304 | 11.3 | 16.1 | 0.00 | 0.00 | 0.00 | 82 | 1017.6 |
| 20260906081021 | 13 | 289 | 9.7 | 16.1 | 0.00 | 0.00 | 0.00 | 82 | 1017.7 |
| 20260906080518 | 13 | 295 | 9.7 | 16.1 | 0.00 | 0.00 | 0.00 | 82 | 1017.9 |
| 20260906080055 | 13 | 309 | 9.7 | 16.1 | 0.00 | 0.00 | 0.00 | 82 | 1017.8 |
| 20260906075517 | 13 | 314 | 9.7 | 16.1 | 0.00 | 0.00 | 0.00 | 82 | 1017.9 |
| 20260906075018 | 13 | 254 | 8.0 | 14.5 | 0.00 | 0.00 | 0.00 | 83 | 1017.9 |
| 20260906074551 | 13 | 286 | 6.4 | 12.9 | 0.00 | 0.00 | 0.00 | 83 | 1018.0 |
| 20260906074021 | 13 | 261 | 8.0 | 14.5 | 0.00 | 0.00 | 0.00 | 83 | 1018.1 |
| 20260906073518 | 13 | 289 | 8.0 | 14.5 | 0.00 | 0.00 | 0.00 | 84 | 1018.0 |
| 20260906073045 | 12 | 270 | 6.4 | 9.7 | 0.00 | 0.00 | 0.00 | 84 | 1018.1 |
| 20260906072519 | 12 | 253 | 4.8 | 9.7 | 0.00 | 0.00 | 0.00 | 83 | 1018.3 |
| 20260906072018 | 12 | 270 | 4.8 | 9.7 | 0.00 | 0.00 | 0.00 | 83 | 1018.2 |
| 20260906071552 | 12 | 279 | 6.4 | 9.7 | 0.00 | 0.00 | 0.00 | 83 | 1018.2 |
| 20260906071021 | 12 | 258 | 6.4 | 8.0 | 0.00 | 0.00 | 0.00 | 84 | 1018.3 |
| 20260906070522 | 12 | 270 | 4.8 | 12.9 | 0.00 | 0.00 | 0.00 | 84 | 1018.3 |
| 20260906070045 | 12 | 279 | 4.8 | 9.7 | 0.00 | 0.00 | 0.00 | 83 | 1018.2 |
| 20260906065527 | 12 | 248 | 4.8 | 9.7 | 0.00 | 0.00 | 0.00 | 82 | 1018.2 |
| 20260906065023 | 12 | 256 | 4.8 | 9.7 | 0.00 | 0.00 | 0.00 | 82 | 1018.4 |
| 20260906064544 | 13 | 245 | 3.2 | 9.7 | 0.00 | 0.00 | 0.00 | 81 | 1018.2 |
| 20260906064022 | 13 | 252 | 6.4 | 16.1 | 0.00 | 0.00 | 0.00 | 80 | 1018.3 |
| 20260906063525 | 13 | 237 | 8.0 | 16.1 | 0.00 | 0.00 | 0.00 | 80 | 1018.3 |
| 20260906063048 | 13 | 270 | 9.7 | 16.1 | 0.00 | 0.00 | 0.00 | 80 | 1018.3 |
| 20260906062518 | 13 | 253 | 6.4 | 9.7 | 0.00 | 0.00 | 0.00 | 79 | 1018.6 |
| 20260906062024 | 13 | 252 | 4.8 | 9.7 | 0.00 | 0.00 | 0.00 | 78 | 1018.6 |
| 20260906061547 | 13 | 260 | 4.8 | 14.5 | 0.00 | 0.00 | 0.00 | 79 | 1018.6 |
| 20260906061019 | 13 | 242 | 6.4 | 14.5 | 0.00 | 0.00 | 0.00 | 79 | 1018.6 |
| 20260906060517 | 13 | 265 | 6.4 | 12.9 | 0.00 | 0.00 | 0.00 | 78 | 1018.6 |
| 20260906060037 | 13 | 282 | 6.4 | 12.9 | 0.00 | 0.00 | 0.00 | 78 | 1018.6 |
| 20260906055519 | 13 | 283 | 6.4 | 14.5 | 0.00 | 0.00 | 0.00 | 77 | 1018.6 |
| 20260906055020 | 13 | 265 | 9.7 | 16.1 | 0.00 | 0.00 | 0.00 | 77 | 1018.5 |
| 20260906054543 | 13 | 262 | 9.7 | 16.1 | 0.00 | 0.00 | 0.00 | 78 | 1018.4 |
| 20260906054018 | 13 | 300 | 8.0 | 16.1 | 0.00 | 0.00 | 0.00 | 76 | 1018.5 |
| 20260906053515 | 13 | 281 | 9.7 | 16.1 | 0.00 | 0.00 | 0.00 | 76 | 1018.4 |
| 20260906053049 | 13 | 265 | 12.9 | 16.1 | 0.00 | 0.00 | 0.00 | 76 | 1018.4 |
| 20260906052517 | 13 | 251 | 8.0 | 16.1 | 0.00 | 0.00 | 0.00 | 75 | 1018.3 |
| 20260906052020 | 13 | 275 | 6.4 | 12.9 | 0.00 | 0.00 | 0.00 | 75 | 1018.4 |
| 20260906051538 | 13 | 262 | 6.4 | 14.5 | 0.00 | 0.00 | 0.00 | 74 | 1018.3 |
| 20260906051019 | 14 | 257 | 6.4 | 14.5 | 0.00 | 0.00 | 0.00 | 74 | 1018.3 |
| 20260906050519 | 14 | 279 | 6.4 | 14.5 | 0.00 | 0.00 | 0.00 | 74 | 1018.2 |
| 20260906050038 | 14 | 275 | 8.0 | 16.1 | 0.00 | 0.00 | 0.00 | 74 | 1018.0 |
| 20260906045516 | 13 | 270 | 9.7 | 16.1 | 0.00 | 0.00 | 0.00 | 74 | 1018.0 |
| 20260906045018 | 13 | 275 | 9.7 | 14.5 | 0.00 | 0.00 | 0.00 | 74 | 1018.1 |
| 20260906044536 | 13 | 254 | 8.0 | 14.5 | 0.00 | 0.00 | 0.00 | 74 | 1018.1 |
| 20260906044018 | 13 | 260 | 8.0 | 14.5 | 0.00 | 0.00 | 0.00 | 73 | 1017.9 |
| 20260906043517 | 14 | 241 | 9.7 | 16.1 | 0.00 | 0.00 | 0.00 | 73 | 1017.9 |
| 20260906043037 | 14 | 287 | 6.4 | 16.1 | 0.00 | 0.00 | 0.00 | 72 | 1018.1 |
| 20260906042520 | 14 | 239 | 6.4 | 14.5 | 0.00 | 0.00 | 0.00 | 72 | 1018.0 |
| 20260906042019 | 14 | 240 | 4.8 | 17.7 | 0.00 | 0.00 | 0.00 | 72 | 1017.9 |
| 20260906041548 | 14 | 265 | 9.7 | 19.3 | 0.00 | 0.00 | 0.00 | 72 | 1017.5 |
| 20260906041018 | 14 | 275 | 12.9 | 19.3 | 0.00 | 0.00 | 0.00 | 72 | 1017.2 |
| 20260906040517 | 14 | 279 | 14.5 | 19.3 | 0.00 | 0.00 | 0.00 | 71 | 1017.2 |
| 20260906040043 | 14 | 253 | 11.3 | 17.7 | 0.00 | 0.00 | 0.00 | 71 | 1017.1 |
| 20260906035518 | 14 | 296 | 11.3 | 20.9 | 0.00 | 0.00 | 0.00 | 70 | 1016.9 |
| 20260906035016 | 14 | 300 | 11.3 | 20.9 | 0.00 | 0.00 | 0.00 | 70 | 1017.0 |
| 20260906034547 | 14 | 275 | 12.9 | 20.9 | 0.00 | 0.00 | 0.00 | 70 | 1016.9 |
| 20260906034018 | 14 | 281 | 12.9 | 17.7 | 0.00 | 0.00 | 0.00 | 70 | 1017.2 |
| 20260906033519 | 15 | 265 | 12.9 | 19.3 | 0.00 | 0.00 | 0.00 | 69 | 1017.2 |
| 20260906033046 | 15 | 265 | 9.7 | 19.3 | 0.00 | 0.00 | 0.00 | 69 | 1017.3 |
| 20260906032517 | 15 | 280 | 11.3 | 20.9 | 0.00 | 0.00 | 0.00 | 69 | 1017.4 |
| 20260906032019 | 15 | 289 | 12.9 | 20.9 | 0.00 | 0.00 | 0.00 | 69 | 1017.4 |
| 20260906031542 | 15 | 291 | 12.9 | 22.5 | 0.00 | 0.00 | 0.00 | 68 | 1017.3 |
| 20260906031016 | 15 | 281 | 14.5 | 19.3 | 0.00 | 0.00 | 0.00 | 68 | 1017.4 |
| 20260906030518 | 15 | 275 | 12.9 | 22.5 | 0.00 | 0.00 | 0.00 | 67 | 1017.4 |
| 20260906030041 | 15 | 304 | 14.5 | 24.1 | 0.00 | 0.00 | 0.00 | 66 | 1017.1 |
| 20260906025521 | 15 | 256 | 14.5 | 25.7 | 0.00 | 0.00 | 0.00 | 66 | 1017.1 |
| 20260906025020 | 16 | 311 | 16.1 | 27.4 | 0.00 | 0.00 | 0.00 | 66 | 1016.8 |
| 20260906024605 | 16 | 312 | 17.7 | 29.0 | 0.00 | 0.00 | 0.00 | 66 | 1016.3 |
| 20260906024017 | 16 | 309 | 16.1 | 29.0 | 0.00 | 0.00 | 0.00 | 65 | 1016.3 |
| 20260906023518 | 16 | 289 | 17.7 | 29.0 | 0.00 | 0.00 | 0.00 | 64 | 1016.2 |
| 20260906023034 | 16 | 310 | 17.7 | 33.8 | 0.00 | 0.00 | 0.00 | 63 | 1016.1 |
| 20260906022518 | 16 | 310 | 20.9 | 33.8 | 0.00 | 0.00 | 0.00 | 62 | 1015.9 |
| 20260906022021 | 17 | 321 | 16.1 | 29.0 | 0.00 | 0.00 | 0.00 | 61 | 1015.9 |
| 20260906021547 | 17 | 257 | 17.7 | 29.0 | 0.00 | 0.00 | 0.00 | 60 | 1015.9 |
| 20260906021016 | 17 | 299 | 14.5 | 24.1 | 0.00 | 0.00 | 0.00 | 60 | 1016.0 |
| 20260906020518 | 17 | 310 | 16.1 | 29.0 | 0.00 | 0.00 | 0.00 | 59 | 1015.9 |
| 20260906020045 | 17 | 289 | 17.7 | 29.0 | 0.00 | 0.00 | 0.00 | 58 | 1015.9 |
| 20260906015520 | 18 | 306 | 14.5 | 30.6 | 0.00 | 0.00 | 0.00 | 56 | 1015.9 |
| 20260906015019 | 18 | 324 | 19.3 | 30.6 | 0.00 | 0.00 | 0.00 | 55 | 1015.9 |
| 20260906014550 | 18 | 321 | 17.7 | 25.7 | 0.00 | 0.00 | 0.00 | 53 | 1015.7 |
| 20260906014020 | 19 | 300 | 17.7 | 25.7 | 0.00 | 0.00 | 0.00 | 52 | 1015.7 |
| 20260906013522 | 20 | 310 | 14.5 | 32.2 | 0.00 | 0.00 | 0.00 | 50 | 1015.6 |
| 20260906013047 | 20 | 335 | 19.3 | 32.2 | 0.00 | 0.00 | 0.00 | 48 | 1015.5 |
| 20260906012518 | 21 | 270 | 12.9 | 24.1 | 0.00 | 0.00 | 0.00 | 40 | 1015.8 |
| 20260906012022 | 21 | 329 | 14.5 | 22.5 | 0.00 | 0.00 | 0.00 | 39 | 1015.7 |
| 20260906011555 | 22 | 314 | 16.1 | 22.5 | 0.00 | 0.00 | 0.00 | 37 | 1015.7 |
| 20260906011020 | 22 | 315 | 12.9 | 22.5 | 0.00 | 0.00 | 0.00 | 37 | 1015.5 |
| 20260906010524 | 22 | 321 | 12.9 | 22.5 | 0.00 | 0.00 | 0.00 | 36 | 1015.7 |
| 20260906010115 | 22 | 310 | 14.5 | 27.4 | 0.00 | 0.00 | 0.00 | 36 | 1015.7 |
| 20260906005519 | 22 | 338 | 11.3 | 24.1 | 0.00 | 0.00 | 0.00 | 36 | 1015.7 |
| 20260906005021 | 23 | 316 | 11.3 | 20.9 | 0.00 | 0.00 | 0.00 | 35 | 1015.8 |
| 20260906004548 | 23 | 306 | 12.9 | 25.7 | 0.00 | 0.00 | 0.00 | 35 | 1015.8 |
| 20260906004018 | 23 | 312 | 11.3 | 25.7 | 0.00 | 0.00 | 0.00 | 35 | 1016.1 |
| 20260906003518 | 23 | 316 | 14.5 | 22.5 | 0.00 | 0.00 | 0.00 | 34 | 1016.0 |
| 20260906003047 | 23 | 317 | 11.3 | 22.5 | 0.00 | 0.00 | 0.00 | 34 | 1016.0 |
| 20260906002518 | 23 | 336 | 9.7 | 22.5 | 0.00 | 0.00 | 0.00 | 35 | 1016.0 |
| 20260906002018 | 23 | 319 | 12.9 | 20.9 | 0.00 | 0.00 | 0.00 | 34 | 1015.9 |
| 20260906001600 | 23 | 319 | 12.9 | 20.9 | 0.00 | 0.00 | 0.00 | 34 | 1016.0 |
| 20260906001022 | 23 | 338 | 9.7 | 22.5 | 0.00 | 0.00 | 0.00 | 35 | 1016.1 |
| 20260906000520 | 23 | 318 | 14.5 | 22.5 | 0.00 | 0.00 | 0.00 | 34 | 1016.1 |
| 20260906000046 | 24 | 323 | 8.0 | 24.1 | 0.00 | 0.00 | 0.00 | 33 | 1016.3 |
| 20260905235519 | 24 | 356 | 9.7 | 20.9 | 0.00 | 0.00 | 0.00 | 34 | 1016.1 |
| 20260905235022 | 24 | 314 | 6.4 | 19.3 | 0.00 | 0.00 | 0.00 | 34 | 1016.2 |
| 20260905234544 | 24 | 323 | 12.9 | 19.3 | 0.00 | 0.00 | 0.00 | 33 | 1016.1 |
| 20260905234018 | 23 | 336 | 8.0 | 20.9 | 0.00 | 0.00 | 0.00 | 35 | 1016.1 |